Time,TemperatureF,DewpointF,PressureIn,WindDirection,WindDirectionDegrees,WindSpeedMPH,WindSpeedGustMPH,Humidity,HourlyPrecipIn,Conditions,Clouds,dailyrainin,SoftwareType,DateUTC
2013-07-12 00:11:00,50.5,49.0,29.92,NNW,335,0.0,0.0,95,0.00,,,0.00,weatherlink.com 1.10,2013-07-12 07:11:00,
2013-07-12 00:26:00,50.6,49.0,29.92,NNW,347,0.0,1.0,95,0.00,,,0.00,weatherlink.com 1.10,2013-07-12 07:26:00,
2013-07-12 00:41:00,50.4,49.0,29.92,North,355,0.0,1.0,96,0.00,,,0.00,weatherlink.com 1.10,2013-07-12 07:41:00,
2013-07-12 00:57:00,50.3,49.0,29.92,North,351,0.0,0.0,96,0.00,,,0.00,weatherlink.com 1.10,2013-07-12 07:57:00,
2013-07-12 01:12:00,50.1,49.0,29.92,North,351,0.0,0.0,96,0.00,,,0.00,weatherlink.com 1.10,2013-07-12 08:12:00,
2013-07-12 01:27:00,50.1,49.0,29.93,North,351,0.0,0.0,96,0.00,,,0.00,weatherlink.com 1.10,2013-07-12 08:27:00,
2013-07-12 01:42:00,50.6,50.0,29.93,North,351,0.0,0.0,97,0.00,,,0.00,weatherlink.com 1.10,2013-07-12 08:42:00,
2013-07-12 01:57:00,51.1,50.0,29.93,WSW,247,0.0,0.0,96,0.00,,,0.00,weatherlink.com 1.10,2013-07-12 08:57:00,
2013-07-12 02:12:00,51.2,50.0,29.93,WSW,247,0.0,0.0,97,0.00,,,0.00,weatherlink.com 1.10,2013-07-12 09:12:00,
2013-07-12 02:27:00,51.2,50.0,29.93,WSW,247,0.0,0.0,97,0.00,,,0.00,weatherlink.com 1.10,2013-07-12 09:27:00,
2013-07-12 02:42:00,51.2,50.0,29.93,SSE,163,0.0,0.0,97,0.00,,,0.00,weatherlink.com 1.10,2013-07-12 09:42:00,
2013-07-12 02:57:00,51.1,50.0,29.93,SE,143,0.0,0.0,97,0.00,,,0.00,weatherlink.com 1.10,2013-07-12 09:57:00,
2013-07-12 03:12:00,51.2,50.0,29.93,SSW,206,0.0,0.0,97,0.00,,,0.00,weatherlink.com 1.10,2013-07-12 10:12:00,
2013-07-12 03:27:00,51.0,50.0,29.93,South,178,0.0,0.0,97,0.00,,,0.00,weatherlink.com 1.10,2013-07-12 10:27:00,
2013-07-12 03:42:00,51.0,50.0,29.93,South,178,0.0,0.0,97,0.00,,,0.00,weatherlink.com 1.10,2013-07-12 10:42:00,
2013-07-12 03:57:00,51.1,50.0,29.93,ESE,108,0.0,0.0,97,0.00,,,0.00,weatherlink.com 1.10,2013-07-12 10:57:00,
2013-07-12 04:12:00,51.0,50.0,29.93,ESE,108,0.0,0.0,97,0.00,,,0.00,weatherlink.com 1.10,2013-07-12 11:12:00,
2013-07-12 04:27:00,51.0,50.0,29.93,ESE,108,0.0,0.0,97,0.00,,,0.00,weatherlink.com 1.10,2013-07-12 11:27:00,
2013-07-12 04:42:00,51.0,50.0,29.93,SE,127,0.0,0.0,97,0.00,,,0.00,weatherlink.com 1.10,2013-07-12 11:42:00,
2013-07-12 04:57:00,51.0,50.0,29.93,SE,127,0.0,0.0,97,0.00,,,0.00,weatherlink.com 1.10,2013-07-12 11:57:00,
2013-07-12 05:12:00,51.0,50.0,29.93,SE,133,0.0,0.0,97,0.00,,,0.00,weatherlink.com 1.10,2013-07-12 12:12:00,
2013-07-12 05:27:00,50.9,50.0,29.94,East,94,0.0,0.0,97,0.00,,,0.00,weatherlink.com 1.10,2013-07-12 12:27:00,
2013-07-12 05:42:00,50.9,50.0,29.94,South,191,0.0,0.0,97,0.00,,,0.00,weatherlink.com 1.10,2013-07-12 12:42:00,
2013-07-12 05:57:00,50.7,50.0,29.94,SSW,196,0.0,0.0,97,0.00,,,0.00,weatherlink.com 1.10,2013-07-12 12:57:00,
2013-07-12 06:12:00,50.6,50.0,29.94,SSW,197,0.0,0.0,97,0.00,,,0.00,weatherlink.com 1.10,2013-07-12 13:12:00,
2013-07-12 06:27:00,50.6,50.0,29.94,NNE,15,0.0,0.0,97,0.00,,,0.00,weatherlink.com 1.10,2013-07-12 13:27:00,
2013-07-12 06:42:00,50.6,50.0,29.94,NNE,14,0.0,0.0,97,0.00,,,0.00,weatherlink.com 1.10,2013-07-12 13:42:00,
2013-07-12 06:57:00,50.6,50.0,29.95,NNE,23,0.0,0.0,97,0.00,,,0.00,weatherlink.com 1.10,2013-07-12 13:57:00,
2013-07-12 07:12:00,50.7,50.0,29.95,NNE,23,0.0,0.0,97,0.00,,,0.00,weatherlink.com 1.10,2013-07-12 14:12:00,
2013-07-12 07:27:00,50.9,50.0,29.95,NNE,23,0.0,0.0,98,0.00,,,0.00,weatherlink.com 1.10,2013-07-12 14:27:00,
2013-07-12 07:42:00,50.8,50.0,29.95,NNE,23,0.0,0.0,97,0.00,,,0.00,weatherlink.com 1.10,2013-07-12 14:42:00,
2013-07-12 07:57:00,51.1,51.0,29.95,West,273,0.0,0.0,98,0.00,,,0.00,weatherlink.com 1.10,2013-07-12 14:57:00,
2013-07-12 08:27:00,50.9,50.0,29.96,SSW,194,0.0,0.0,97,0.00,,,0.00,weatherlink.com 1.10,2013-07-12 15:27:00,
2013-07-12 08:42:00,50.9,50.0,29.96,SSW,196,0.0,0.0,98,0.00,,,0.00,weatherlink.com 1.10,2013-07-12 15:42:00,
2013-07-12 08:57:00,51.1,51.0,29.96,SSW,206,0.0,0.0,98,0.01,,,0.01,weatherlink.com 1.10,2013-07-12 15:57:00,
2013-07-12 09:12:00,51.3,51.0,29.96,SSW,207,0.0,0.0,97,0.01,,,0.01,weatherlink.com 1.10,2013-07-12 16:12:00,
2013-07-12 09:27:00,51.3,51.0,29.96,SSW,196,3.0,4.0,98,0.01,,,0.01,weatherlink.com 1.10,2013-07-12 16:27:00,
2013-07-12 09:42:00,51.2,50.0,29.96,SSW,203,0.0,4.0,97,0.01,,,0.01,weatherlink.com 1.10,2013-07-12 16:42:00,
2013-07-12 09:57:00,51.5,51.0,29.96,SSW,195,2.0,5.0,97,0.00,,,0.01,weatherlink.com 1.10,2013-07-12 16:57:00,
2013-07-12 10:12:00,51.7,51.0,29.97,SW,227,0.0,4.0,97,0.00,,,0.01,weatherlink.com 1.10,2013-07-12 17:12:00,
2013-07-12 10:27:00,52.2,51.0,29.96,SW,225,0.0,3.0,97,0.00,,,0.01,weatherlink.com 1.10,2013-07-12 17:27:00,
2013-07-12 10:57:00,51.7,51.0,29.96,SSW,211,3.0,5.0,96,0.00,,,0.01,weatherlink.com 1.10,2013-07-12 17:57:00,
2013-07-12 11:12:00,52.5,51.0,29.97,SW,225,2.0,4.0,96,0.00,,,0.01,weatherlink.com 1.10,2013-07-12 18:12:00,
2013-07-12 11:27:00,53.0,52.0,29.97,SW,217,4.0,6.0,96,0.00,,,0.01,weatherlink.com 1.10,2013-07-12 18:27:00,
2013-07-12 11:42:00,52.8,52.0,29.97,South,187,6.0,6.0,96,0.00,,,0.01,weatherlink.com 1.10,2013-07-12 18:42:00,
2013-07-12 11:57:00,52.6,52.0,29.97,SW,215,5.0,6.0,96,0.00,,,0.01,weatherlink.com 1.10,2013-07-12 18:57:00,
2013-07-12 12:12:00,52.9,52.0,29.97,SSW,196,4.0,6.0,96,0.00,,,0.01,weatherlink.com 1.10,2013-07-12 19:12:00,
2013-07-12 12:27:00,53.0,52.0,29.98,SSW,194,3.0,7.0,95,0.00,,,0.01,weatherlink.com 1.10,2013-07-12 19:27:00,
2013-07-12 12:42:00,53.0,51.0,29.98,SW,217,4.0,6.0,94,0.00,,,0.01,weatherlink.com 1.10,2013-07-12 19:42:00,
2013-07-12 12:57:00,52.8,52.0,29.98,SSW,200,3.0,6.0,95,0.00,,,0.01,weatherlink.com 1.10,2013-07-12 19:57:00,
2013-07-12 13:13:00,53.3,52.0,29.98,SW,227,5.0,6.0,94,0.00,,,0.01,weatherlink.com 1.10,2013-07-12 20:13:00,
2013-07-12 13:27:00,53.3,52.0,29.98,SSW,207,4.0,6.0,94,0.00,,,0.01,weatherlink.com 1.10,2013-07-12 20:27:00,
2013-07-12 13:57:00,53.1,52.0,29.98,SSW,213,5.0,6.0,94,0.00,,,0.01,weatherlink.com 1.10,2013-07-12 20:57:00,
2013-07-12 14:12:00,53.4,52.0,29.97,SSW,196,5.0,6.0,93,0.00,,,0.01,weatherlink.com 1.10,2013-07-12 21:12:00,
2013-07-12 14:27:00,53.7,52.0,29.97,SSW,211,5.0,7.0,92,0.00,,,0.01,weatherlink.com 1.10,2013-07-12 21:27:00,
2013-07-12 14:42:00,54.1,52.0,29.97,South,180,2.0,7.0,93,0.00,,,0.01,weatherlink.com 1.10,2013-07-12 21:42:00,
2013-07-12 14:57:00,54.5,52.0,29.97,SW,217,5.0,7.0,92,0.00,,,0.01,weatherlink.com 1.10,2013-07-12 21:57:00,
2013-07-12 15:12:00,53.0,51.0,29.96,SSW,213,4.0,8.0,92,0.00,,,0.01,weatherlink.com 1.10,2013-07-12 22:12:00,
2013-07-12 15:27:00,54.1,52.0,29.96,SSW,203,7.0,7.0,92,0.00,,,0.01,weatherlink.com 1.10,2013-07-12 22:27:00,
2013-07-12 15:43:00,54.7,53.0,29.95,SSW,198,5.0,9.0,92,0.00,,,0.01,weatherlink.com 1.10,2013-07-12 22:43:00,
2013-07-12 15:58:00,56.2,53.0,29.95,SW,216,4.0,8.0,89,0.00,,,0.01,weatherlink.com 1.10,2013-07-12 22:58:00,
2013-07-12 16:13:00,57.0,53.0,29.94,SSW,195,5.0,7.0,87,0.00,,,0.01,weatherlink.com 1.10,2013-07-12 23:13:00,
2013-07-12 16:28:00,57.0,53.0,29.93,SSW,206,4.0,8.0,87,0.00,,,0.01,weatherlink.com 1.10,2013-07-12 23:28:00,
2013-07-12 16:58:00,57.5,53.0,29.92,SSW,209,3.0,6.0,84,0.00,,,0.01,weatherlink.com 1.10,2013-07-12 23:58:00,
2013-07-12 17:13:00,58.9,53.0,29.91,SSW,207,2.0,6.0,81,0.00,,,0.01,weatherlink.com 1.10,2013-07-13 00:13:00,
2013-07-12 17:28:00,58.8,53.0,29.91,SSW,206,3.0,5.0,82,0.00,,,0.01,weatherlink.com 1.10,2013-07-13 00:28:00,
2013-07-12 17:43:00,59.2,54.0,29.90,South,183,3.0,6.0,82,0.00,,,0.01,weatherlink.com 1.10,2013-07-13 00:43:00,
2013-07-12 17:58:00,59.3,54.0,29.90,SSW,211,2.0,6.0,81,0.00,,,0.01,weatherlink.com 1.10,2013-07-13 00:58:00,
2013-07-12 18:13:00,60.0,54.0,29.89,South,186,3.0,6.0,80,0.00,,,0.01,weatherlink.com 1.10,2013-07-13 01:13:00,
2013-07-12 18:28:00,59.8,53.0,29.89,South,184,4.0,5.0,79,0.00,,,0.01,weatherlink.com 1.10,2013-07-13 01:28:00,
2013-07-12 18:43:00,58.9,53.0,29.89,SSW,213,1.0,5.0,81,0.00,,,0.01,weatherlink.com 1.10,2013-07-13 01:43:00,
2013-07-12 18:58:00,58.4,53.0,29.89,SSW,198,1.0,4.0,82,0.00,,,0.01,weatherlink.com 1.10,2013-07-13 01:58:00,
2013-07-12 19:13:00,58.0,53.0,29.88,SSW,203,0.0,3.0,83,0.00,,,0.01,weatherlink.com 1.10,2013-07-13 02:13:00,
2013-07-12 19:28:00,58.0,53.0,29.88,SSW,200,0.0,2.0,83,0.00,,,0.01,weatherlink.com 1.10,2013-07-13 02:28:00,
2013-07-12 19:43:00,57.4,53.0,29.88,SSW,200,0.0,2.0,84,0.00,,,0.01,weatherlink.com 1.10,2013-07-13 02:43:00,
2013-07-12 20:28:00,56.0,53.0,29.87,SSW,200,0.0,0.0,88,0.00,,,0.01,weatherlink.com 1.10,2013-07-13 03:28:00,
2013-07-12 20:58:00,54.5,52.0,29.88,SSW,200,0.0,0.0,90,0.00,,,0.01,weatherlink.com 1.10,2013-07-13 03:58:00,
2013-07-12 21:13:00,54.1,52.0,29.88,SSW,201,0.0,0.0,91,0.00,,,0.01,weatherlink.com 1.10,2013-07-13 04:13:00,
2013-07-12 21:28:00,54.5,52.0,29.89,NNE,23,0.0,0.0,92,0.00,,,0.01,weatherlink.com 1.10,2013-07-13 04:28:00,
2013-07-12 21:43:00,53.9,51.0,29.89,NNE,22,0.0,0.0,91,0.00,,,0.01,weatherlink.com 1.10,2013-07-13 04:43:00,
2013-07-12 21:58:00,53.5,51.0,29.89,NNE,22,0.0,1.0,92,0.00,,,0.01,weatherlink.com 1.10,2013-07-13 04:58:00,
2013-07-12 22:13:00,53.5,51.0,29.89,NNE,12,0.0,2.0,92,0.00,,,0.01,weatherlink.com 1.10,2013-07-13 05:13:00,
2013-07-12 22:28:00,53.1,51.0,29.90,NE,34,0.0,1.0,92,0.00,,,0.01,weatherlink.com 1.10,2013-07-13 05:28:00,
2013-07-12 22:43:00,52.9,51.0,29.90,NNE,19,0.0,2.0,92,0.00,,,0.01,weatherlink.com 1.10,2013-07-13 05:43:00,
2013-07-12 22:58:00,52.6,50.0,29.90,NNE,19,0.0,0.0,92,0.00,,,0.01,weatherlink.com 1.10,2013-07-13 05:58:00,
2013-07-12 23:13:00,52.3,50.0,29.90,NW,313,0.0,0.0,92,0.00,,,0.01,weatherlink.com 1.10,2013-07-13 06:13:00,
2013-07-12 23:28:00,52.0,50.0,29.90,NNE,23,0.0,0.0,93,0.00,,,0.01,weatherlink.com 1.10,2013-07-13 06:28:00,
2013-07-12 23:43:00,51.6,50.0,29.90,NNE,23,1.0,3.0,93,0.00,,,0.01,weatherlink.com 1.10,2013-07-13 06:43:00,
2013-07-12 23:58:00,51.5,50.0,29.90,NNE,30,0.0,2.0,93,0.00,,,0.01,weatherlink.com 1.10,2013-07-13 06:58:00,